BSAT-3C (JCSAT-110R)

Last updated on Sept. 20, 2020, 5:45 a.m. UTC

1 37776U 11041B   20263.76668295 -.00000366  00000-0  00000-0 0  9995
2 37776   0.0148 204.4009 0000385  64.7350 115.9571  1.00270022 29469
UTC
Height (km)
Latitude
Longitude
Inclination
Orbital Period
UTC large
Height (km)
Speed (km/s)
/
Latitude / Longitude
Inclination (degrees)
Orbital Period (minutes)
Azimuth
Elevation
Range (km)
Doppler Factor
iOS Compass Heading
iOS Angle

Next 30 passes for location: Hong Kong

Rise time Rise Azimuth (degrees) Set time Set Azimuth (degrees) Duration Max altitude (degrees)

No matching passes for this satellites